Flag for U.S.A. Weather past 2 weeks in Ontario, Oregon, U.S.A.

Now
55 °F

Sunny.


Feels Like: 54 °F
Forecast: 49 / 74 °F
Wind: 6 mph from Northwest

Location: Ontario Municipal Airport

Current Time: Sep 3, 2015 at 10:35:44 PM

Latest Report: Sep 3, 2015 at 9:53 PM


Visibility: 10 mi

Pressure: 29.88 "Hg (27.62 "Hg at 656m altitude)

Humidity: 64%

Dew point: 43 °F

Location of OntarioLocation

Historic Weather in Ontario — Graph

°F

Ontario temperature yesterday

Maximum temperature yesterday: 86 °F (at 4:53 PM)
Minimum temperature yesterday: 56 °F (at 6:53 AM)
Average temperature yesterday: 69 °F

Past Weeks' High & Low Weather Summary

 TemperatureHumidityPressure
High95 °F (Aug 25, 5:53 PM)80% (Sep 3, 9:53 AM)30.10 "Hg (Sep 3, 9:53 AM)
Low45 °F (Aug 23, 6:53 AM)11% (Aug 21, 6:53 AM)29.67 "Hg (Sep 1, 11:53 PM)
Average71 °F40%29.88 "Hg
* Reported Aug 19 8:53 PM — Sep 3 8:53 PM, Ontario, Weather by CustomWeather, © 2015

Note: Actual official high and low records may vary slightly from our data, if they occured in-between our weather recording intervals... More about our weather records

Advertising

Ontario weather history for previous 24 hours

 ConditionsComfort  
Time TempWeatherWind HumidityBarometerVisibility
8:53 PM
Thu, Sep 3
59 °FSunny.N/A56%29.84 "Hg10 mi
7:53 PM68 °FSunny.3 mph39%29.83 "Hg10 mi
6:53 PM70 °FSunny.3 mph34%29.83 "Hg10 mi
5:53 PM70 °FSunny.3 mph34%29.85 "Hg10 mi
4:53 PM69 °FSunny.N/A39%29.88 "Hg10 mi
3:53 PM67 °FOvercast.6 mph45%29.89 "Hg10 mi
2:53 PM63 °FSunny.6 mph58%29.92 "Hg10 mi
1:53 PM58 °FPartly sunny.9 mph78%29.94 "Hg10 mi
12:53 PM61 °FLight rain. Overcast.No wind60%29.95 "Hg10 mi
11:53 AM56 °FLight rain. Overcast.3 mph70%29.96 "Hg10 mi
10:53 AM54 °FLight rain. Overcast.No wind74%29.97 "Hg10 mi
9:53 AM52 °FLight rain. Mostly cloudy.5 mph80%29.97 "Hg4 mi
8:53 AM56 °FPassing clouds.16 mph60%29.93 "Hg10 mi
7:53 AM56 °FClear.18 mph58%29.91 "Hg10 mi
6:53 AM57 °FPassing clouds.18 mph55%29.88 "Hg10 mi
5:53 AM59 °FClear.17 mph51%29.85 "Hg10 mi
4:53 AM59 °FClear.18 mph54%29.83 "Hg10 mi
3:53 AM62 °FClear.22 mph48%29.81 "Hg10 mi
2:53 AM63 °FClear.22 mph47%29.78 "Hg10 mi
1:53 AM64 °FPassing clouds.25 mph45%29.76 "Hg10 mi
12:53 AM65 °FPassing clouds.21 mph44%29.74 "Hg10 mi
11:53 PM
Wed, Sep 2
66 °FClear.18 mph40%29.73 "Hg10 mi
10:53 PM68 °FClear.20 mph39%29.74 "Hg10 mi
Weather by CustomWeather, © 2015

See weather overviewHow to use our weather pages